SCP
0 0 0 0 0 -0 -0 0 -0 -0 -0 -0 0 0 -0 -0 -0 -0 -0 0 0 -0 0 0 0 0 0 0 0 0 0 0 0 0 -0 0 0 0 0 0 0 0 0
0 0 0 0 0 -0 -0 0 -0 0 -0 0 0 0 -0 -0 -0 -0 -0 -0 -0 -0 -0 0 0 0 0 0 0 0 0 0 0 0 0 0 0 0 0 0 0 0 0
0 -0 0 0 0 0 -0 -0 0 -0 0 0 0 0 0 -0 -0 -0 0 0 0 0 0 0 0 0 0 0 0 0 0 0 0 0 0 0 0 0 0 0 1 0 1
0 0 0 0 0 0 0 0 0 0 0 0 -0 0 -0 -0 -0 -0 0 0 0 0 0 0 0 0 0 0 0 0 0 0 0 0 0 0 0 0 0 0 0 0 0
1 1 0 0 0 0 0 0 0 0 0 0 0 0 -0 -0 0 0 0 0 0 0 0 0 0 0 0 0 0 0 0 0 0 0 0 0 0 0 0 0 0 0 0
1 1 0 0 0 0 1 0 0 0 0 0 0 0 0 0 0 -0 0 0 0 0 0 0 0 0 0 0 0 0 0 0 0 0 0 0 0 0 0 0 0 0 0
1 2 0 0 0 0 0 1 1 0 0 0 0 0 0 -0 0 0 0 0 0 0 0 0 0 0 0 0 0 0 0 0 0 0 0 0 0 0 0 0 0 0 0
2 2 1 0 0 0 0 1 1 1 1 0 0 0 0 0 0 0 0 0 0 0 0 0 0 0 0 0 0 0 0 0 0 0 0 0 0 0 0 0 0 0 0
3 3 3 1 0 -0 -0 0 1 1 1 1 1 0 0 0 0 0 0 0 0 0 0 0 0 0 0 0 0 0 0 0 0 0 0 0 0 0 0 0 0 0 0
5 3 4 2 -0 -0 -0 0 1 1 1 1 1 1 0 0 0 0 0 0 0 0 0 0 0 0 0 0 0 0 0 0 0 0 0 0 0 0 0 0 0 0 0
2 3 3 2 1 0 0 0 0 1 1 1 1 1 1 1 0 0 0 0 0 0 0 0 0 0 0 0 0 0 0 0 0 0 0 0 0 0 0 0 0 0 0
1 1 3 3 2 2 1 1 0 0 0 1 1 1 1 1 0 0 0 0 0 0 0 0 0 0 -0 -0 0 0 0 0 0 0 0 0 0 0 0 0 0 0 0
1 1 2 3 2 2 1 1 1 1 0 1 1 1 1 1 0 0 0 0 0 0 0 0 0 0 0 0 0 0 0 0 0 0 0 0 0 0 0 0 0 0 0
1 1 1 2 3 3 2 1 1 1 1 1 1 1 1 1 0 0 0 0 0 -0 0 0 0 0 0 0 0 0 0 0 0 0 0 0 0 0 0 0 0 0 0
0 0 1 2 3 3 1 1 1 1 1 1 1 1 1 1 1 0 0 -0 -0 0 0 0 0 0 0 0 0 0 0 0 0 0 0 0 0 0 0 0 0 0 0
0 0 1 2 3 3 3 0 0 0 0 1 1 1 0 0 0 0 0 0 0 0 0 0 0 0 0 0 0 0 0 0 0 0 0 0 0 0 0 0 0 0 0
0 0 0 0 0 0 0 0 0 0 0 0 0 0 0 0 0 0 0 0 0 0 0 0 0 0 0 0 0 0 0 0 0 0 0 0 0 0 0 0 0 0 0
0 0 0 0 0 0 0 0 0 0 0 0 0 0 0 0 0 0 0 0 0 0 0 0 0 0 0 0 0 0 0 0 0 0 0 0 0 0 0 0 0 0 0
0 0 0 0 0 0 0 -0 0 0 0 0 0 0 0 0 0 0 0 0 0 0 0 0 0 0 0 0 0 0 0 0 0 0 0 0 0 0 0 0 0 0 0
0 0 0 0 0 0 0 0 0 0 0 0 0 0 0 0 0 0 0 0 0 0 0 0 0 0 0 0 0 0 0 0 0 0 0 0 0 0 0 0 0 0 0
0 0 0 0 0 0 0 0 -0 0 0 -0 0 0 0 0 0 0 0 0 0 0 0 0 0 0 0 0 0 0 0 0 0 0 0 0 0 0 0 0 0 0 0
0 0 -0 0 0 0 0 0 0 0 0 -0 0 0 0 0 0 0 0 0 0 0 0 0 0 0 0 0 0 0 0 0 0 0 0 0 0 0 0 0 0 0 0
0 0 -0 0 0 0 0 -0 0 0 0 0 0 0 0 0 0 0 0 0 0 0 0 0 0 0 0 0 0 0 0 0 0 0 0 0 0 0 0 0 0 0 0
0 -0 -0 0 0 -0 0 0 -0 0 0 -0 0 0 0 0 0 0 0 0 0 0 0 0 0 0 0 0 0 0 0 0 0 0 0 0 0 -0 -0 -0 -0 -0 0
0 0 0 0 0 0 0 0 -0 0 0 0 0 0 0 -0 0 0 0 0 0 0 0 0 0 0 0 0 0 0 0 0 0 0 0 0 0 0 -0 -0 -0 -0 0
0 0 -0 -0 0 0 -0 0 -0 0 0 0 -0 -0 0 0 0 0 0 0 0 0 0 0 0 0 0 0 0 0 0 0 0 0 0 0 0 0 0 0 0 0 0
Wind_Speed_500mb
35 32 33 36 31 32 37 24 51 50 38 49 42 32 39 39 37 30 28 25 24 22 19 17 12 16 12 20 16 13 13 13 15 6 6 6 13 18 14 23 27 27 25
36 38 35 32 30 33 38 38 50 33 36 48 42 33 41 41 36 34 33 31 20 21 19 18 21 21 14 15 14 22 21 17 24 21 13 15 18 24 27 22 25 32 30
34 42 43 38 35 33 36 46 52 40 47 51 46 37 44 45 42 37 35 34 33 31 25 27 26 18 21 18 17 25 28 30 24 24 25 27 25 22 30 21 25 30 34
44 43 53 45 43 37 28 50 61 51 46 49 54 49 49 45 43 40 37 34 35 33 35 30 27 28 30 29 26 27 31 37 40 36 36 37 42 34 31 33 39 32 37
49 46 46 44 45 48 37 38 64 57 51 52 46 51 47 43 47 48 44 38 32 31 29 32 29 25 31 34 26 35 32 35 35 34 37 36 35 35 37 39 45 50 49
56 53 47 40 45 51 53 47 49 57 61 53 51 50 48 54 56 48 42 34 33 38 35 34 35 33 35 33 36 37 38 42 42 41 40 41 42 43 41 45 43 45 50
51 58 58 51 51 54 58 58 54 57 57 53 53 57 56 52 46 45 42 41 43 43 38 36 37 32 32 36 39 36 35 33 32 32 34 29 28 27 31 31 31 36 43
53 62 62 63 60 60 57 67 64 64 63 58 54 53 50 50 50 50 47 44 50 48 46 43 39 35 30 31 37 35 34 35 32 32 31 27 29 30 32 33 36 40 43
66 64 69 69 66 66 68 68 70 69 70 66 60 56 54 48 49 49 51 49 49 49 45 37 34 32 24 23 28 29 28 26 22 27 33 30 28 32 35 33 29 30 37
69 65 69 70 71 72 71 74 73 72 71 67 62 59 54 53 50 47 48 50 42 37 34 29 20 20 18 20 17 20 21 21 25 30 33 36 36 32 30 31 34 42 39
54 58 61 71 72 69 68 68 73 75 71 69 63 57 56 56 53 45 47 48 43 37 32 30 26 25 27 28 25 27 27 31 36 37 36 40 42 41 34 33 36 39 37
40 52 58 65 73 71 70 72 69 71 71 58 61 59 54 52 44 44 43 40 35 34 33 32 20 22 23 25 27 27 32 33 31 27 31 34 31 24 25 31 27 18 23
35 43 56 57 64 69 69 75 74 73 63 65 58 64 57 53 45 41 44 42 40 38 37 38 34 29 24 22 27 29 22 15 13 18 18 12 8 20 27 32 36 29 31
43 45 51 57 64 67 71 72 74 74 67 68 60 55 58 53 48 37 40 39 40 41 42 42 37 30 28 23 15 15 16 14 17 19 19 17 22 29 29 34 42 41 39
57 52 56 59 62 72 77 82 77 78 77 75 67 59 54 53 51 39 37 29 27 38 34 35 37 32 24 23 21 24 28 24 24 20 19 20 25 33 32 33 21 25 26
55 51 52 53 60 68 75 83 73 65 63 62 64 61 51 48 43 35 35 32 24 27 33 31 32 31 29 27 28 29 33 31 26 30 32 37 31 26 20 23 25 22 22
55 43 47 54 61 55 36 61 70 57 62 59 65 65 58 60 49 50 46 45 34 31 33 32 36 38 37 29 30 25 25 33 41 47 28 29 29 27 21 22 21 15 18
54 52 49 41 37 33 14 35 53 22 59 54 54 54 49 51 54 48 53 50 46 42 36 36 36 28 29 34 39 39 36 35 31 20 18 19 21 24 26 23 23 25 25
56 54 43 41 41 47 67 87 87 72 30 49 52 58 57 53 47 50 53 52 47 43 38 28 21 24 32 32 32 30 32 36 24 23 20 20 24 22 18 19 24 25 25
36 28 40 43 48 55 41 42 76 97 80 61 70 72 68 64 64 61 55 46 44 39 34 25 24 27 26 29 34 36 33 27 25 25 23 23 20 19 19 22 22 22 23
11 6 16 10 18 34 59 63 87 92 89 78 59 81 72 71 70 64 53 47 44 39 33 31 29 31 32 32 24 12 18 21 19 12 7 8 10 13 14 15 17 12 12
30 27 3 20 9 11 27 54 66 66 47 59 72 99 75 72 67 59 48 40 31 32 32 33 33 32 32 21 13 16 17 13 9 7 4 3 7 10 12 13 10 9 8
25 38 28 12 14 17 5 22 35 41 45 23 59 62 65 72 63 52 42 35 26 27 33 31 29 23 22 18 13 11 7 8 5 2 3 3 3 5 3 0 2 8 11
41 38 31 24 23 21 13 36 45 29 29 39 58 56 50 56 57 44 40 33 30 32 28 22 18 10 16 19 16 10 8 4 15 9 8 10 14 25 23 20 18 14 12
30 39 39 31 26 25 12 31 30 13 48 25 47 52 50 60 55 42 44 37 37 32 24 16 16 11 12 16 16 18 12 13 10 9 6 16 19 18 15 14 12 9 7
27 32 26 20 22 24 40 20 31 35 36 38 57 57 52 53 55 47 42 40 34 26 21 16 18 19 19 20 15 14 16 13 11 10 11 15 14 6 3 1 2 7 11
Wind_Direction_500mb
214 216 217 224 225 220 213 198 196 200 223 205 203 204 200 200 194 200 212 222 207 199 216 268 277 242 286 247 230 234 257 272 290 307 274 344 252 302 289 293 295 302 299
220 216 218 217 213 218 212 197 188 201 194 203 207 203 198 206 204 202 217 227 245 235 227 239 258 256 263 281 256 243 244 247 270 274 284 277 274 276 261 277 291 287 292
219 214 220 220 217 216 219 199 192 204 197 207 221 206 204 199 209 211 212 221 236 242 243 246 256 265 246 259 275 269 268 261 268 281 264 259 274 272 294 292 270 264 271
219 217 216 221 218 219 214 208 200 208 209 213 215 216 207 205 213 219 224 231 235 240 247 258 267 247 249 254 251 261 271 267 262 267 274 276 276 277 284 288 271 269 277
219 220 218 222 221 217 206 207 208 210 222 224 218 215 213 213 218 222 228 230 235 236 240 247 258 258 257 262 272 268 271 272 269 271 273 275 271 271 285 291 289 290 290
221 223 218 222 224 216 215 210 210 213 220 228 227 227 220 222 223 223 229 228 243 253 249 249 252 259 266 268 266 264 263 263 267 271 275 276 275 279 287 286 290 291 292
223 219 218 218 227 225 215 216 220 218 221 224 227 226 224 222 224 222 225 225 237 251 254 255 263 259 250 250 252 258 259 258 265 273 276 284 291 296 292 294 298 298 297
233 221 226 223 224 228 224 218 217 220 225 227 226 222 222 221 224 222 227 229 238 244 251 261 263 252 255 252 249 261 269 267 274 273 269 279 286 293 297 301 312 311 303
232 229 230 232 230 230 230 225 223 220 222 226 226 222 219 223 226 225 226 231 240 245 249 255 257 240 256 251 253 265 271 278 279 272 269 277 272 275 280 291 306 308 316
231 237 235 230 234 234 234 231 227 227 226 224 226 227 226 227 229 229 230 232 238 233 235 235 231 235 232 228 233 243 267 275 283 288 276 278 282 281 288 289 299 298 297
246 244 242 243 241 239 237 236 232 229 230 227 229 230 230 231 231 231 232 235 237 224 233 225 228 239 242 234 254 257 269 282 290 289 283 275 273 276 278 284 289 289 281
267 249 248 242 240 239 240 241 237 232 229 231 230 229 229 230 230 235 232 217 221 236 230 232 238 228 226 239 245 259 279 288 293 299 299 286 284 288 273 290 292 297 295
273 250 247 246 238 237 238 240 236 232 227 228 228 230 224 228 232 229 235 237 230 230 229 236 243 249 255 256 265 276 272 283 301 319 341 355 302 303 295 283 289 296 292
295 265 251 246 241 236 240 235 236 233 227 225 222 223 226 228 227 220 221 219 224 224 229 237 243 249 259 261 248 261 261 258 272 278 279 288 295 289 287 291 290 292 284
291 283 256 249 243 241 239 237 230 231 225 224 219 220 219 221 220 223 220 213 229 230 229 225 233 240 246 251 255 267 254 235 259 270 267 267 269 276 288 305 305 311 303
293 288 256 253 251 248 245 243 237 227 225 228 233 225 222 224 226 226 227 215 209 200 216 228 235 243 259 257 269 259 239 236 255 267 273 275 270 282 284 292 297 309 308
292 297 276 257 246 241 255 254 245 219 225 222 218 217 231 221 222 226 217 208 208 214 232 235 242 250 264 250 264 259 255 266 281 292 274 257 266 268 272 281 286 301 304
287 286 288 287 243 209 213 36 19 251 229 210 204 210 215 218 219 214 204 209 207 217 232 245 257 256 244 254 256 263 273 283 294 271 262 274 279 274 272 278 283 282 284
282 277 271 271 267 253 245 278 305 315 329 234 220 208 207 204 200 198 203 210 218 234 246 236 230 247 254 246 251 269 284 291 273 264 269 277 276 281 288 281 280 288 293
279 273 261 260 250 256 230 227 255 270 280 298 247 220 203 190 196 199 204 215 227 231 222 227 228 230 250 271 280 285 288 281 270 270 271 254 267 275 277 278 285 290 293
231 329 265 237 245 242 230 249 218 232 240 268 251 231 214 205 205 210 217 222 227 220 212 220 236 247 258 270 271 274 299 280 258 257 231 231 260 274 278 285 292 288 291
232 225 351 186 294 305 286 253 226 211 237 276 240 225 213 208 210 216 211 219 213 210 189 214 232 249 273 264 284 323 315 296 259 207 207 221 267 271 276 270 272 271 266
219 205 220 234 280 286 306 155 199 187 160 199 195 191 195 207 207 208 196 182 179 178 200 217 237 250 251 256 285 327 355 16 353 281 193 206 212 260 333 137 113 108 101
214 222 228 252 293 260 228 131 161 223 259 231 193 191 185 183 185 193 188 184 185 186 206 234 241 249 218 237 262 267 304 357 26 34 106 97 98 98 93 91 99 98 83
211 216 234 246 225 210 200 155 163 113 174 177 191 186 184 177 180 175 188 190 201 207 213 221 230 268 237 251 267 248 253 271 318 324 143 124 112 108 106 86 80 73 48
199 182 194 183 195 162 165 155 131 150 184 182 184 191 198 189 188 183 192 186 185 191 198 209 238 255 244 253 288 261 247 259 247 237 207 159 141 151 198 185 315 311 313
Wind_Speed_850mb
35 32 33 36 31 32 37 24 51 50 38 49 42 32 39 39 37 30 28 25 24 22 19 17 12 16 12 20 16 13 13 13 15 6 6 6 13 18 14 23 27 27 25
36 38 35 32 30 33 38 38 50 33 36 48 42 33 41 41 36 34 33 31 20 21 19 18 21 21 14 15 14 22 21 17 24 21 13 15 18 24 27 22 25 32 30
34 42 43 38 35 33 36 46 52 40 47 51 46 37 44 45 42 37 35 34 33 31 25 27 26 18 21 18 17 25 28 30 24 24 25 27 25 22 30 21 25 30 34
44 43 53 45 43 37 28 50 61 51 46 49 54 49 49 45 43 40 37 34 35 33 35 30 27 28 30 29 26 27 31 37 40 36 36 37 42 34 31 33 39 32 37
49 46 46 44 45 48 37 38 64 57 51 52 46 51 47 43 47 48 44 38 32 31 29 32 29 25 31 34 26 35 32 35 35 34 37 36 35 35 37 39 45 50 49
56 53 47 40 45 51 53 47 49 57 61 53 51 50 48 54 56 48 42 34 33 38 35 34 35 33 35 33 36 37 38 42 42 41 40 41 42 43 41 45 43 45 50
51 58 58 51 51 54 58 58 54 57 57 53 53 57 56 52 46 45 42 41 43 43 38 36 37 32 32 36 39 36 35 33 32 32 34 29 28 27 31 31 31 36 43
53 62 62 63 60 60 57 67 64 64 63 58 54 53 50 50 50 50 47 44 50 48 46 43 39 35 30 31 37 35 34 35 32 32 31 27 29 30 32 33 36 40 43
66 64 69 69 66 66 68 68 70 69 70 66 60 56 54 48 49 49 51 49 49 49 45 37 34 32 24 23 28 29 28 26 22 27 33 30 28 32 35 33 29 30 37
69 65 69 70 71 72 71 74 73 72 71 67 62 59 54 53 50 47 48 50 42 37 34 29 20 20 18 20 17 20 21 21 25 30 33 36 36 32 30 31 34 42 39
54 58 61 71 72 69 68 68 73 75 71 69 63 57 56 56 53 45 47 48 43 37 32 30 26 25 27 28 25 27 27 31 36 37 36 40 42 41 34 33 36 39 37
40 52 58 65 73 71 70 72 69 71 71 58 61 59 54 52 44 44 43 40 35 34 33 32 20 22 23 25 27 27 32 33 31 27 31 34 31 24 25 31 27 18 23
35 43 56 57 64 69 69 75 74 73 63 65 58 64 57 53 45 41 44 42 40 38 37 38 34 29 24 22 27 29 22 15 13 18 18 12 8 20 27 32 36 29 31
43 45 51 57 64 67 71 72 74 74 67 68 60 55 58 53 48 37 40 39 40 41 42 42 37 30 28 23 15 15 16 14 17 19 19 17 22 29 29 34 42 41 39
57 52 56 59 62 72 77 82 77 78 77 75 67 59 54 53 51 39 37 29 27 38 34 35 37 32 24 23 21 24 28 24 24 20 19 20 25 33 32 33 21 25 26
55 51 52 53 60 68 75 83 73 65 63 62 64 61 51 48 43 35 35 32 24 27 33 31 32 31 29 27 28 29 33 31 26 30 32 37 31 26 20 23 25 22 22
55 43 47 54 61 55 36 61 70 57 62 59 65 65 58 60 49 50 46 45 34 31 33 32 36 38 37 29 30 25 25 33 41 47 28 29 29 27 21 22 21 15 18
54 52 49 41 37 33 14 35 53 22 59 54 54 54 49 51 54 48 53 50 46 42 36 36 36 28 29 34 39 39 36 35 31 20 18 19 21 24 26 23 23 25 25
56 54 43 41 41 47 67 87 87 72 30 49 52 58 57 53 47 50 53 52 47 43 38 28 21 24 32 32 32 30 32 36 24 23 20 20 24 22 18 19 24 25 25
36 28 40 43 48 55 41 42 76 97 80 61 70 72 68 64 64 61 55 46 44 39 34 25 24 27 26 29 34 36 33 27 25 25 23 23 20 19 19 22 22 22 23
11 6 16 10 18 34 59 63 87 92 89 78 59 81 72 71 70 64 53 47 44 39 33 31 29 31 32 32 24 12 18 21 19 12 7 8 10 13 14 15 17 12 12
30 27 3 20 9 11 27 54 66 66 47 59 72 99 75 72 67 59 48 40 31 32 32 33 33 32 32 21 13 16 17 13 9 7 4 3 7 10 12 13 10 9 8
25 38 28 12 14 17 5 22 35 41 45 23 59 62 65 72 63 52 42 35 26 27 33 31 29 23 22 18 13 11 7 8 5 2 3 3 3 5 3 0 2 8 11
41 38 31 24 23 21 13 36 45 29 29 39 58 56 50 56 57 44 40 33 30 32 28 22 18 10 16 19 16 10 8 4 15 9 8 10 14 25 23 20 18 14 12
30 39 39 31 26 25 12 31 30 13 48 25 47 52 50 60 55 42 44 37 37 32 24 16 16 11 12 16 16 18 12 13 10 9 6 16 19 18 15 14 12 9 7
27 32 26 20 22 24 40 20 31 35 36 38 57 57 52 53 55 47 42 40 34 26 21 16 18 19 19 20 15 14 16 13 11 10 11 15 14 6 3 1 2 7 11
Wind_Direction_850mb
214 216 217 224 225 220 213 198 196 200 223 205 203 204 200 200 194 200 212 222 207 199 216 268 277 242 286 247 230 234 257 272 290 307 274 344 252 302 289 293 295 302 299
220 216 218 217 213 218 212 197 188 201 194 203 207 203 198 206 204 202 217 227 245 235 227 239 258 256 263 281 256 243 244 247 270 274 284 277 274 276 261 277 291 287 292
219 214 220 220 217 216 219 199 192 204 197 207 221 206 204 199 209 211 212 221 236 242 243 246 256 265 246 259 275 269 268 261 268 281 264 259 274 272 294 292 270 264 271
219 217 216 221 218 219 214 208 200 208 209 213 215 216 207 205 213 219 224 231 235 240 247 258 267 247 249 254 251 261 271 267 262 267 274 276 276 277 284 288 271 269 277
219 220 218 222 221 217 206 207 208 210 222 224 218 215 213 213 218 222 228 230 235 236 240 247 258 258 257 262 272 268 271 272 269 271 273 275 271 271 285 291 289 290 290
221 223 218 222 224 216 215 210 210 213 220 228 227 227 220 222 223 223 229 228 243 253 249 249 252 259 266 268 266 264 263 263 267 271 275 276 275 279 287 286 290 291 292
223 219 218 218 227 225 215 216 220 218 221 224 227 226 224 222 224 222 225 225 237 251 254 255 263 259 250 250 252 258 259 258 265 273 276 284 291 296 292 294 298 298 297
233 221 226 223 224 228 224 218 217 220 225 227 226 222 222 221 224 222 227 229 238 244 251 261 263 252 255 252 249 261 269 267 274 273 269 279 286 293 297 301 312 311 303
232 229 230 232 230 230 230 225 223 220 222 226 226 222 219 223 226 225 226 231 240 245 249 255 257 240 256 251 253 265 271 278 279 272 269 277 272 275 280 291 306 308 316
231 237 235 230 234 234 234 231 227 227 226 224 226 227 226 227 229 229 230 232 238 233 235 235 231 235 232 228 233 243 267 275 283 288 276 278 282 281 288 289 299 298 297
246 244 242 243 241 239 237 236 232 229 230 227 229 230 230 231 231 231 232 235 237 224 233 225 228 239 242 234 254 257 269 282 290 289 283 275 273 276 278 284 289 289 281
267 249 248 242 240 239 240 241 237 232 229 231 230 229 229 230 230 235 232 217 221 236 230 232 238 228 226 239 245 259 279 288 293 299 299 286 284 288 273 290 292 297 295
273 250 247 246 238 237 238 240 236 232 227 228 228 230 224 228 232 229 235 237 230 230 229 236 243 249 255 256 265 276 272 283 301 319 341 355 302 303 295 283 289 296 292
295 265 251 246 241 236 240 235 236 233 227 225 222 223 226 228 227 220 221 219 224 224 229 237 243 249 259 261 248 261 261 258 272 278 279 288 295 289 287 291 290 292 284
291 283 256 249 243 241 239 237 230 231 225 224 219 220 219 221 220 223 220 213 229 230 229 225 233 240 246 251 255 267 254 235 259 270 267 267 269 276 288 305 305 311 303
293 288 256 253 251 248 245 243 237 227 225 228 233 225 222 224 226 226 227 215 209 200 216 228 235 243 259 257 269 259 239 236 255 267 273 275 270 282 284 292 297 309 308
292 297 276 257 246 241 255 254 245 219 225 222 218 217 231 221 222 226 217 208 208 214 232 235 242 250 264 250 264 259 255 266 281 292 274 257 266 268 272 281 286 301 304
287 286 288 287 243 209 213 36 19 251 229 210 204 210 215 218 219 214 204 209 207 217 232 245 257 256 244 254 256 263 273 283 294 271 262 274 279 274 272 278 283 282 284
282 277 271 271 267 253 245 278 305 315 329 234 220 208 207 204 200 198 203 210 218 234 246 236 230 247 254 246 251 269 284 291 273 264 269 277 276 281 288 281 280 288 293
279 273 261 260 250 256 230 227 255 270 280 298 247 220 203 190 196 199 204 215 227 231 222 227 228 230 250 271 280 285 288 281 270 270 271 254 267 275 277 278 285 290 293
231 329 265 237 245 242 230 249 218 232 240 268 251 231 214 205 205 210 217 222 227 220 212 220 236 247 258 270 271 274 299 280 258 257 231 231 260 274 278 285 292 288 291
232 225 351 186 294 305 286 253 226 211 237 276 240 225 213 208 210 216 211 219 213 210 189 214 232 249 273 264 284 323 315 296 259 207 207 221 267 271 276 270 272 271 266
219 205 220 234 280 286 306 155 199 187 160 199 195 191 195 207 207 208 196 182 179 178 200 217 237 250 251 256 285 327 355 16 353 281 193 206 212 260 333 137 113 108 101
214 222 228 252 293 260 228 131 161 223 259 231 193 191 185 183 185 193 188 184 185 186 206 234 241 249 218 237 262 267 304 357 26 34 106 97 98 98 93 91 99 98 83
211 216 234 246 225 210 200 155 163 113 174 177 191 186 184 177 180 175 188 190 201 207 213 221 230 268 237 251 267 248 253 271 318 324 143 124 112 108 106 86 80 73 48
199 182 194 183 195 162 165 155 131 150 184 182 184 191 198 189 188 183 192 186 185 191 198 209 238 255 244 253 288 261 247 259 247 237 207 159 141 151 198 185 315 311 313